Weather in Val-D'or

Canada     48°06′05″N   77°47′19″W
temp.,
°C
wind,
m/s
gust,
m/s
humid.,
%
clouds,
%
prec.,
mm/h
press.,
hPa
HPBL,
m
20 january, thu
thu2001:00−23nw41092100 0.2 1023528
04:00−26nw399491 0.0 1027327
07:00−33wnw231005 0.0 103144
10:00−28wnw369374 0.0 1033271
13:00−24wnw3587100 0.0 1032631
16:00−23w2590100 0.0 1033343
19:00−29wsw2399100 0.0 103540
22:00−33sw2210067 0.0 103710
21 january, fri
fri2101:00−33sw2210072 0.0 103716
04:00−33ssw2210089 0.0 103831
07:00−31ssw2410072 0.0 103949
10:00−22ssw369515 0.0 1037176
13:00−14sw368237 0.0 1035519
16:00−13ssw488735 0.0 1033479
19:00−16s4139259 0.0 1033400
22:00−15ssw5159292 0.0 1031486
22 january, sat
sat2201:00−15s51693100 0.0 1029546
04:00−14s61793100 0.0 1026589
07:00−14s61792100 0.1 1023688
10:00−13s61887100 0.0 1020662
13:00−11s61687100 0.1 1016822
16:00−9s71593100 1.6 10121014
19:00−9s61492100 2.1 1009872
22:00−9ssw51294100 0.6 1006710
23 january, sun
sun2301:00−18nw41096100 1.3 1010370
04:00−19nw3795100 0.1 1011497
07:00−22nw3795100 0.1 1013384
10:00−24nw369172 0.0 1014380
13:00−21nw3582100 0.0 1013722
16:00−20wnw2589100 0.0 1012867
19:00−26wnw11100100 0.1 101510
22:00−30ssw1110074 0.1 10169
24 january, mon
mon2401:00−33sw22100100 0.1 101613
04:00−30sw23100100 0.0 101642
07:00−33sw11100100 0.1 10179
10:00−24wsw239998 0.0 1017161
13:00−18wsw2482100 0.0 1015724
16:00−18wsw1190100 0.0 101612
19:00−28sw001005 0.0 10199
22:00−30ese1110055 0.0 10209